[[{"header":{"parameterUnit":"m.s-1","parameterCategory":1,"la1":30.2991,"la2":30.254,"lo1":-89.0895,"lo2":-89.0444,"dy":0.0017,"dx":0.0017,"nx":28,"ny":28,"refTime":"2025-03-07T03:00:00:Z","depth":0,"parameterNumber":2,"parameterNumberName":"U-component_of_WINDS"},"data":[0,0,0,0,0,0,0,0,0,0,0,0,0,0,0,0,0,0,0,0,0,0,0,0,0,0,0,0,0,0,0,0,0,0,0,0,0,0,0,0,0,0,0,0,0,0,0,0,0,0,0,0,0,0,0,0,0,0,2.0708,2.0709,0,2.0737,2.0738,2.0738,2.064,2.0637,2.0634,2.0631,2.0664,2.0667,2.0671,0,0,0,0,0,0,0,0,0,0,0,0,0,2.057,2.0573,2.0708,2.0709,2.0709,2.0737,2.0738,2.0738,2.064,2.0637,2.0633,2.063,2.0663,2.0667,2.0671,0,0,0,0,0,0,0,0,0,0,0,0,0,2.0618,2.0574,2.0708,2.0664,2.066,2.0737,2.0738,2.0738,2.0641,2.0637,2.0632,2.0628,2.0661,2.0666,2.0672,2.0794,0,0,2.0688,2.0691,0,0,0,0,0,0,0,0,2.0615,2.0623,2.067,2.0667,2.0663,2.068,2.0701,2.0757,2.0642,2.0648,2.0631,2.0626,2.0673,2.0677,2.0693,2.0796,2.0797,2.0689,2.0692,2.0695,2.0696,0,0,0,0,0,0,0,2.0612,2.0621,2.072,2.0671,2.0666,2.0643,2.0644,2.0711,2.0685,2.0648,2.064,2.0645,2.067,2.0688,2.0693,2.0798,2.0689,2.0694,2.0697,2.0699,2.1,2.1005,0,0,0,0,0,0,2.0614,2.0619,2.0719,2.0721,2.0627,2.0649,2.0651,2.0679,2.0684,2.0681,2.0649,2.064,2.068,2.0686,2.0693,2.0835,2.0694,2.07,2.0703,2.0996,2.1001,2.1007,0,0,0,0,0,0,2.0611,2.0624,2.0718,2.0668,2.0678,2.0656,2.0689,2.0682,2.0699,2.0685,2.0681,2.0671,2.0677,2.0686,2.0769,2.0835,2.0702,2.0707,2.099,2.0998,2.1004,2.112,0,0,0,0,0,0,2.0608,2.0623,2.067,2.067,2.0681,2.0793,2.0693,2.0686,2.0709,2.0698,2.0705,2.0702,2.0674,2.0762,2.0775,2.084,2.0711,2.0984,2.0993,2.1002,2.111,2.1131,2.1148,0,0,0,0,0,2.0603,2.0702,2.0672,2.0685,2.0738,2.0797,2.0804,2.0769,2.0714,2.076,2.0751,2.0702,2.0826,2.0771,2.0785,2.0853,2.098,2.0991,2.1001,2.1102,2.1127,2.1147,0,0,0,0,0,0,2.0712,2.0702,2.0668,2.077,2.0785,2.078,2.0837,2.0797,2.0828,2.0817,2.0773,2.0776,2.0867,2.0868,2.0807,2.097,2.0893,2.0907,2.0965,2.0989,2.1007,2.1004,2.0716,0,0,0,0,0,2.0748,2.0796,2.0784,2.0876,2.0885,2.086,2.0885,2.0857,2.087,2.0877,2.0873,2.089,2.0932,2.0961,2.0999,2.1111,2.111,2.1164,2.1183,2.1198,2.121,2.1267,2.129,2.1042,2.1042,2.1041,0,0,2.0822,2.0822,2.0856,2.0897,2.0905,2.0956,2.0866,2.0924,2.0961,2.0886,2.0963,2.0962,2.0977,2.1074,2.1117,2.1078,2.1279,2.1212,2.1224,2.1228,2.128,2.1304,2.1325,2.1049,2.1048,2.1046,0,0,2.0983,2.0989,2.1064,2.1074,2.1087,2.1069,2.1088,2.1089,2.1085,2.1162,2.1105,2.1149,2.1224,2.1236,2.1252,2.1416,2.1371,2.1431,2.1527,2.1583,2.1602,2.1619,2.1675,2.1696,2.1443,2.1443,2.1443,0,2.1074,2.1147,2.1108,2.1169,2.1188,2.1122,2.1197,2.1209,2.1234,2.1249,2.1206,2.1296,2.1302,2.1399,2.1439,2.1456,2.1474,2.1428,2.1602,2.1619,2.1635,2.1688,2.1709,2.145,2.1449,2.1449,2.1448,0,2.1257,2.1309,2.1368,2.1392,2.1419,2.1487,2.1458,2.149,2.146,2.1448,2.1526,2.1531,2.1567,2.1589,2.1561,2.1683,2.1658,2.161,2.1531,2.1666,2.1715,2.1735,2.146,2.1457,2.1455,2.1454,0,0,2.1486,2.1487,2.1509,2.1519,2.1528,2.1567,2.1633,2.1667,2.1694,2.1714,2.1767,2.1831,2.1785,2.1803,2.1776,2.1825,2.1952,2.177,2.177,2.1802,2.2084,2.2119,2.2143,2.1923,2.1927,2.193,2.2082,0,2.1642,2.1751,2.1718,2.1828,2.1875,2.1812,2.1868,2.188,2.187,2.1908,2.1898,2.1942,2.188,2.189,2.1937,2.1927,2.2008,2.1916,2.197,2.1973,2.1966,2.2169,2.2206,2.235,2.2101,2.2104,2.2107,0,2.1838,2.1864,2.1978,2.1978,2.1996,2.2047,2.2075,2.2113,2.2125,2.2114,2.2134,2.2096,2.216,2.2083,2.2168,2.2107,2.2127,2.2126,2.2131,2.2132,2.2046,2.2174,2.2395,2.2415,2.2137,2.2135,2.2132,0,2.199,2.2054,2.213,2.214,2.2142,2.2179,2.2182,2.2189,2.2212,2.2237,2.2251,2.2285,2.2302,2.2329,2.2301,2.2248,2.239,2.2311,2.2382,2.2383,2.2413,2.2411,2.2637,2.2431,2.2431,2.243,2.243,0,2.2166,2.2238,2.2198,2.2244,2.2323,2.2284,2.2363,2.2359,2.2366,2.241,2.236,2.2403,2.2364,2.2404,2.2383,2.2455,2.2465,2.2457,2.245,2.246,2.2461,2.2471,2.246,2.2436,2.2435,2.2434,2.2433,0,2.2348,2.2324,2.2402,2.2398,2.2398,2.2456,2.2452,2.2495,2.2481,2.2538,2.2549,2.2528,2.2572,2.2547,2.2593,2.2578,2.2672,2.2653,2.2668,2.2662,2.2733,2.2725,2.2972,2.3001,2.2778,2.2781,2.2782,0,2.246,2.2513,2.2514,2.254,2.2545,2.2588,2.261,2.2574,2.26,2.2616,2.2657,2.2696,2.2725,2.2798,2.2787,2.2821,2.2801,2.2885,2.2806,2.2813,2.2799,2.2795,2.2799,2.29,2.2903,2.2905,2.2907,0,2.2661,2.2646,2.268,2.2709,2.2737,2.2759,2.2776,2.2801,2.2765,2.2796,2.2839,2.2862,2.2907,2.2946,2.2975,2.2978,2.2936,2.2932,2.2949,2.2959,2.2964,2.2959,2.2708,2.2926,2.2924,2.2923,2.2922,2.2921,2.2809,2.2853,2.286,2.2898,2.2908,2.2925,2.2964,2.2955,2.299,2.3024,2.3001,2.3052,2.3061,2.3095,2.3104,2.3143,2.3109,2.3135,2.3142,2.3148,2.3156,2.296,2.3149,2.3148,2.3147,2.3147,2.3147,0,2.3005,2.3006,2.3042,2.3067,2.3098,2.3056,2.3073,2.3101,2.3146,2.3158,2.3187,2.3237,2.3274,2.3266,2.3299,2.3332,2.3314,2.3342,2.3338,2.3339,2.3186,2.3166,2.3356,2.3356,2.3356,2.3356,2.3356,2.3356,2.311,2.3181,2.3167,2.3242,2.3243,2.3291,2.3304,2.332,2.3329,2.3386,2.3416,2.341,2.3414,2.3447,2.3479,2.3476,2.3489,2.3524,2.3514,2.3371,2.335,2.333,2.3311,2.3528,2.3529,2.3663,2.3664,2.3665]},{"header":{"parameterUnit":"m.s-1","parameterCategory":1,"la1":30.2991,"la2":30.254,"lo1":-89.0895,"lo2":-89.0444,"dy":0.0017,"dx":0.0017,"nx":28,"ny":28,"refTime":"2025-03-07T03:00:00:Z","depth":0,"parameterNumber":3,"parameterNumberName":"V-component_of_WINDS"},"data":[0,0,0,0,0,0,0,0,0,0,0,0,0,0,0,0,0,0,0,0,0,0,0,0,0,0,0,0,0,0,0,0,0,0,0,0,0,0,0,0,0,0,0,0,0,0,0,0,0,0,0,0,0,0,0,0,0,0,2.1776,2.1777,0,2.1831,2.1832,2.1832,2.1804,2.1802,2.1801,2.18,2.1853,2.1856,2.1858,0,0,0,0,0,0,0,0,0,0,0,0,0,2.1644,2.1646,2.1776,2.1777,2.1778,2.1831,2.1832,2.1832,2.1804,2.1802,2.1801,2.1799,2.1852,2.1855,2.1859,0,0,0,0,0,0,0,0,0,0,0,0,0,2.17,2.1647,2.1776,2.177,2.177,2.1831,2.1832,2.1833,2.1805,2.1802,2.18,2.1798,2.1851,2.1855,2.1859,2.1928,0,0,2.1872,2.1874,0,0,0,0,0,0,0,0,2.1697,2.1705,2.177,2.1771,2.1771,2.1808,2.1804,2.1865,2.1805,2.1791,2.18,2.1797,2.184,2.1845,2.186,2.1931,2.1933,2.1872,2.1875,2.1877,2.1878,0,0,0,0,0,0,0,2.1693,2.1702,2.1798,2.1771,2.1772,2.1763,2.1769,2.1816,2.1827,2.1792,2.1791,2.1797,2.1839,2.1856,2.1861,2.1934,2.1872,2.1876,2.1878,2.188,2.2062,2.2064,0,0,0,0,0,0,2.169,2.1699,2.1796,2.1799,2.1728,2.1767,2.1774,2.1798,2.1826,2.1829,2.1799,2.1796,2.185,2.1856,2.1862,2.1944,2.1876,2.188,2.1883,2.206,2.2063,2.2065,0,0,0,0,0,0,2.1687,2.1699,2.1794,2.1749,2.176,2.1772,2.18,2.1801,2.1817,2.1832,2.1833,2.1814,2.1848,2.1857,2.1912,2.1946,2.1882,2.1886,2.2057,2.2061,2.2064,2.2109,0,0,0,0,0,0,2.1683,2.1698,2.1725,2.175,2.1763,2.1844,2.1802,2.1803,2.1825,2.1821,2.1846,2.1848,2.1847,2.1906,2.1916,2.195,2.1889,2.2054,2.2059,2.2063,2.2104,2.2113,2.2121,0,0,0,0,0,2.1679,2.1736,2.1727,2.1739,2.1798,2.1846,2.1853,2.1852,2.1827,2.1854,2.1863,2.1847,2.194,2.1912,2.1923,2.1959,2.2052,2.2057,2.2062,2.2101,2.2112,2.2121,0,0,0,0,0,0,2.1714,2.1739,2.1729,2.1796,2.1819,2.1841,2.1875,2.1864,2.1894,2.1889,2.1885,2.1891,2.1948,2.1959,2.1927,2.2026,2.1992,2.2,2.2017,2.2028,2.2036,2.2032,2.1893,0,0,0,0,0,2.173,2.1768,2.1787,2.1844,2.1856,2.1864,2.1884,2.1881,2.1905,2.1914,2.1927,2.195,2.1984,2.2006,2.2039,2.2105,2.211,2.2136,2.2144,2.2151,2.2158,2.2192,2.2204,2.2083,2.2082,2.2082,0,0,2.1763,2.1781,2.1805,2.1851,2.1869,2.1907,2.1872,2.1914,2.1942,2.192,2.1973,2.1984,2.2008,2.2069,2.2097,2.208,2.2192,2.2158,2.2163,2.2166,2.2199,2.2211,2.2221,2.2086,2.2085,2.2085,0,0,2.1842,2.186,2.1909,2.1927,2.1954,2.1958,2.197,2.1993,2.1999,2.2053,2.2036,2.2069,2.2128,2.2146,2.2163,2.2247,2.2232,2.2257,2.2301,2.2335,2.2345,2.2353,2.2382,2.2393,2.2264,2.2264,2.2264,0,2.1879,2.1937,2.1935,2.1978,2.1999,2.1981,2.2029,2.2046,2.2082,2.2096,2.2077,2.215,2.2165,2.223,2.225,2.2265,2.2277,2.2255,2.2344,2.2352,2.236,2.2388,2.2399,2.2267,2.2266,2.2266,2.2266,0,2.1981,2.2021,2.2057,2.2093,2.2117,2.2163,2.2166,2.219,2.2185,2.2191,2.2244,2.2262,2.2297,2.2311,2.2306,2.2375,2.2363,2.2344,2.231,2.2374,2.24,2.2411,2.2271,2.227,2.2269,2.2268,0,0,2.2085,2.2118,2.2131,2.2146,2.2174,2.2205,2.2249,2.2284,2.2304,2.2329,2.2365,2.2415,2.2397,2.2416,2.2412,2.2442,2.2506,2.2419,2.2419,2.2434,2.2581,2.2596,2.2608,2.2497,2.2499,2.25,2.2579,0,2.2166,2.2244,2.2242,2.2315,2.2351,2.2334,2.2372,2.2392,2.2398,2.2429,2.2435,2.2471,2.2444,2.2456,2.2484,2.2492,2.2536,2.2486,2.2529,2.2531,2.2524,2.2622,2.2638,2.2712,2.2589,2.2591,2.2592,0,2.2271,2.2299,2.2375,2.2396,2.2412,2.2446,2.2477,2.2507,2.2529,2.2531,2.2552,2.2543,2.2586,2.255,2.2609,2.2576,2.2592,2.2599,2.2601,2.2606,2.2566,2.2628,2.2735,2.2746,2.2608,2.2607,2.2606,0,2.2338,2.2396,2.2448,2.2462,2.2488,2.2513,2.2524,2.2544,2.2565,2.2591,2.2604,2.2635,2.2652,2.2676,2.2675,2.2649,2.2734,2.2698,2.2736,2.2736,2.2755,2.2754,2.2866,2.2766,2.2766,2.2766,2.2765,0,2.2429,2.2476,2.2479,2.2512,2.2563,2.256,2.2611,2.262,2.2637,2.267,2.2656,2.2687,2.2684,2.2714,2.2714,2.2762,2.277,2.2772,2.2771,2.2773,2.2773,2.2784,2.2779,2.2769,2.2768,2.2767,2.2767,0,2.2513,2.2518,2.2574,2.2594,2.26,2.2637,2.2653,2.2683,2.2687,2.2729,2.2738,2.2745,2.278,2.2782,2.2822,2.2821,2.288,2.2873,2.2873,2.2871,2.2909,2.2905,2.3032,2.3049,2.2939,2.294,2.294,0,2.2571,2.2607,2.263,2.2651,2.2665,2.2699,2.272,2.2718,2.274,2.2766,2.2793,2.2827,2.2854,2.291,2.2918,2.2949,2.2943,2.2985,2.2947,2.2948,2.2943,2.2941,2.2944,2.2992,2.2994,2.2995,2.2995,0,2.2672,2.2672,2.2703,2.2735,2.276,2.2785,2.2807,2.2825,2.2825,2.285,2.2886,2.2907,2.2948,2.2981,2.3011,2.3021,2.3008,2.3007,2.3017,2.302,2.3018,2.3019,2.2893,2.3004,2.3003,2.3003,2.3002,2.3002,2.2745,2.2775,2.2796,2.2831,2.2848,2.2869,2.2898,2.2906,2.2936,2.297,2.2966,2.3006,2.3025,2.3063,2.3076,2.3106,2.3091,2.3106,2.311,2.3114,2.3118,2.3013,2.3111,2.3111,2.3111,2.311,2.311,0,2.2845,2.2857,2.2889,2.2921,2.2948,2.2934,2.2958,2.2981,2.3016,2.3036,2.3063,2.3103,2.3135,2.3145,2.3176,2.3198,2.3192,2.3206,2.3204,2.3207,2.3129,2.3117,2.321,2.321,2.321,2.321,2.321,2.3209,2.29,2.2951,2.2953,2.3011,2.3023,2.3063,2.3077,2.3096,2.3112,2.3158,2.3185,2.3191,2.3206,2.3237,2.3266,2.3267,2.3279,2.3295,2.3295,2.3222,2.3212,2.3203,2.3191,2.3298,2.3298,2.3369,2.337,2.337]}]]